Home   Weather   Zagreb   Past weeks
Flag for Croatia

Past Weather in Zagreb, Croatia — Yesterday and Last 2 Weeks

Now
63 °F

Passing clouds.


Feels Like: 63 °F
Forecast: 71 / 50 °F
Wind: 7 mph from West

Location: Zagreb / Pleso

Current Time: Oct 18, 2019 at 11:20:02 am

Latest Report: Oct 18, 2019 at 10:30 am


Visibility: N/A

Pressure: 30.04 "Hg

Humidity: 73%

Dew Point: 54 °F

Location of ZagrebLocation

Past Weather in Zagreb — Graph

°F

Zagreb Temperature Yesterday

Maximum temperature yesterday: 66 °F (at 3:00 pm)
Minimum temperature yesterday: 46 °F (at 5:30 am)
Average temperature yesterday: 54 °F

High & Low Weather Summary for the Past Weeks

 TemperatureHumidityPressure
High75 °F (Oct 13, 4:00 pm)100% (Oct 12, 4:00 am)30.33 "Hg (Oct 12, 4:00 am)
Low34 °F (Oct 8, 6:30 am)47% (Oct 12, 3:00 pm)29.74 "Hg (Oct 5, 3:30 pm)
Average55 °F80%30.05 "Hg
* Reported Oct 3 10:00 am — Oct 18 10:00 am, Zagreb. Weather by CustomWeather, © 2019

Note: Actual official high and low records may vary slightly from our data, if they occured in-between our weather recording intervals... More about our weather records

Advertising

Zagreb Weather History for the Previous 24 Hours

Scroll right to see more
 ConditionsComfort  
Time TempWeatherWind HumidityBarometerVisibility
10:00 am
Fri, Oct 18
59 °FPassing clouds.3 mph88%30.04 "HgN/A
9:30 am55 °FPassing clouds.3 mph94%30.04 "HgN/A
9:00 am54 °FPassing clouds.3 mph94%30.04 "HgN/A
8:30 am48 °FSunny.1 mph94%30.04 "Hg10 mi
8:00 am48 °FPassing clouds.3 mph94%30.04 "HgN/A
7:30 am45 °FFog.1 mph93%30.04 "HgN/A
7:00 am45 °FFog.1 mph93%30.04 "HgN/A
6:30 am45 °FPassing clouds.2 mph93%30.04 "HgN/A
6:00 am45 °FClear.No wind93%30.04 "Hg10 mi
5:30 am46 °FClear.2 mph93%30.04 "Hg10 mi
5:00 am45 °FClear.3 mph93%30.04 "Hg10 mi
4:30 am45 °FFog.3 mph93%30.04 "Hg2 mi
4:00 am45 °FLight fog.1 mph93%30.04 "Hg1 mi
3:30 am45 °FFog.1 mph93%30.04 "Hg4 mi
3:00 am46 °FFog.2 mph93%30.04 "Hg4 mi
2:30 am45 °FFog.2 mph93%30.07 "Hg5 mi
2:00 am45 °FFog.1 mph93%30.04 "Hg2 mi
1:30 am46 °FLight fog.No wind93%30.07 "Hg1 mi
1:00 am46 °FLight fog.1 mph93%30.04 "Hg1 mi
12:30 am46 °FFog.1 mph93%30.04 "Hg3 mi
12:00 am48 °FFog.1 mph94%30.07 "Hg2 mi
11:30 pm
Thu, Oct 17
50 °FFog.1 mph94%30.07 "Hg4 mi
11:00 pm50 °FLight fog.No wind94%30.07 "Hg2 mi
10:30 pm50 °FLight fog.2 mph94%30.07 "Hg2 mi
10:00 pm50 °FFog.2 mph94%30.07 "Hg2 mi
9:30 pm52 °FClear.No wind94%30.07 "Hg10 mi
9:00 pm52 °FClear.No wind94%30.07 "Hg10 mi
8:30 pm54 °FClear.1 mph88%30.07 "Hg10 mi
8:00 pm55 °FClear.3 mph88%30.07 "Hg10 mi
7:30 pm57 °FClear.No wind82%30.07 "Hg10 mi
7:00 pm59 °FClear.2 mph77%30.04 "Hg10 mi
6:30 pm61 °FClear.3 mph77%30.04 "Hg10 mi
6:00 pm63 °FPassing clouds.3 mph77%30.04 "HgN/A
4:30 pm66 °FSunny.2 mph68%30.04 "Hg10 mi
4:00 pm66 °FSunny.2 mph68%30.07 "Hg10 mi
3:30 pm64 °FPassing clouds.2 mph73%30.07 "HgN/A
3:00 pm66 °FPassing clouds.1 mph68%30.07 "HgN/A
2:30 pm64 °FPassing clouds.2 mph73%30.07 "HgN/A
2:00 pm64 °FPassing clouds.2 mph73%30.09 "HgN/A
1:30 pm63 °FPassing clouds.3 mph77%30.09 "HgN/A
1:00 pm59 °FPartly sunny.2 mph88%30.09 "HgN/A
12:30 pm59 °FLow clouds.3 mph88%30.12 "HgN/A
12:00 pm57 °FLow clouds.3 mph94%30.12 "HgN/A
11:30 am57 °FLow clouds.5 mph94%30.12 "HgN/A
11:00 am57 °FLow clouds.1 mph94%30.12 "HgN/A
Weather by CustomWeather, © 2019

See weather overview